Corpus Christi, TX

7:13 PM CST on January 20, 2018 (GMT -0600)
Corpus Christi International

Weather History for KCRP - July, 2014

Change the Weather History Date:

Saturday, July 12, 2014

  Actual Average Record
Temperature  
Mean Temperature 82 °F 84 °F  
Max Temperature 94 °F 93 °F 101 °F (1964)
Min Temperature 70 °F 75 °F 69 °F (1946)
Degree Days  
Heating Degree Days 0 0  
Month to date heating degree days 0 0  
Since 1 June heating degree days 0 0  
Since 1 July heating degree days 0 0  
Cooling Degree Days 17 19  
Month to date cooling degree days 227 224  
Year to date cooling degree days 1640 1587  
Since 1 June cooling degree days 834 746  
Growing Degree Days 32 (Base 50)    
Moisture  
Dew Point 72 °F    
Average Humidity 75    
Maximum Humidity 100    
Minimum Humidity 49    
Precipitation  
Precipitation 0.00 in 0.11 in 2.21 in (1968)
Month to date precipitation 0.46 1.40  
Year to date precipitation 8.97 15.03  
Snow  
Snow 0.00 in - - ()
Month to date snowfall 0.0  
Since 1 June snowfall 0.0  
Since 1 July snowfall 0.0  
Snow Depth 0.00 in    
Sea Level Pressure  
Sea Level Pressure 30.10 in    
Wind  
Wind Speed 8 mph (SE)    
Max Wind Speed 20 mph    
Max Gust Speed 25 mph    
Visibility 7 miles    
Events Fog    
T = Trace of Precipitation, MM = Missing Value Source: NWS Daily Summary

Daily Weather History Graph

Daily Weather History Graph

Search for Another Location

Airport or City:

Trip Planner

Search our weather history database for the weather conditions in past years. The results will help you decide how hot, cold, wet, or windy it might be!

Date:

Astronomy

Jul. 12, 2014 Rise Set
Actual Time 6:42 AM CDT 8:28 PM CDT
Civil Twilight 6:16 AM CDT 8:54 PM CDT
Nautical Twilight 5:44 AM CDT 9:26 PM CDT
Astronomical Twilight 5:11 AM CDT 9:59 PM CDT
Moon 8:41 PM CDT (7/12) 6:56 AM CDT (7/12)
Length of Visible Light 14h 38m
Length of Day
13h 46m
Full, 100% of the Moon is Illuminated
Jul 12
Full
Jul 18
Last Quarter
Jul 26
New
Aug 3
First Quarter
Aug 10
Full

Hourly Weather History & Observations

Time (CDT) Temp. Heat Index Dew Point Humidity Pressure Visibility Wind Dir Wind Speed Gust Speed Precip Events Conditions
12:51 AM 75.0 °F - 73.0 °F 94% 30.11 in 10.0 mi SE 5.8 mph - N/A   Partly Cloudy
1:51 AM 73.9 °F - 72.0 °F 93% 30.11 in 9.0 mi SSE 5.8 mph - N/A   Partly Cloudy
2:51 AM 73.9 °F - 73.0 °F 97% 30.09 in 9.0 mi SE 3.5 mph - N/A   Partly Cloudy
3:11 AM 71.1 °F - 70.0 °F 96% 30.09 in 8.0 mi SW 4.6 mph - N/A   Scattered Clouds
3:18 AM 71.1 °F - 70.0 °F 96% 30.09 in 0.8 mi SW 4.6 mph - N/A   Mostly Cloudy
3:51 AM 71.1 °F - 70.0 °F 96% 30.09 in 0.5 mi Calm Calm - N/A Fog Fog
4:17 AM 71.1 °F - 70.0 °F 96% 30.09 in 0.2 mi Calm Calm - N/A Fog Fog
4:51 AM 70.0 °F - 69.1 °F 97% 30.09 in 0.1 mi Calm Calm - N/A Fog Fog
5:23 AM 70.0 °F - 70.0 °F 100% 30.10 in 0.5 mi Calm Calm - N/A Fog Fog
5:43 AM 71.1 °F - 70.0 °F 96% 30.10 in 1.5 mi Calm Calm - N/A   Mostly Cloudy
5:51 AM 71.1 °F - 70.0 °F 96% 30.10 in 9.0 mi East 3.5 mph - N/A   Mostly Cloudy
6:38 AM 71.1 °F - 70.0 °F 96% 30.11 in 0.8 mi Calm Calm - N/A   Scattered Clouds
6:51 AM 71.1 °F - 70.0 °F 96% 30.11 in 0.5 mi Calm Calm - N/A Fog Fog
7:31 AM 73.0 °F - 72.0 °F 96% 30.12 in 5.0 mi ENE 3.5 mph - N/A   Scattered Clouds
7:51 AM 75.9 °F - 75.0 °F 97% 30.12 in 9.0 mi Calm Calm - N/A   Partly Cloudy
8:51 AM 81.0 °F 87.3 °F 75.9 °F 85% 30.14 in 10.0 mi East 4.6 mph - N/A   Partly Cloudy
9:51 AM 84.0 °F 90.2 °F 73.0 °F 69% 30.14 in 10.0 mi Variable 3.5 mph - N/A   Mostly Cloudy
10:51 AM 87.1 °F 93.6 °F 72.0 °F 61% 30.14 in 10.0 mi South 8.1 mph - N/A   Scattered Clouds
11:51 AM 88.0 °F 94.7 °F 72.0 °F 59% 30.14 in 10.0 mi ESE 8.1 mph - N/A   Scattered Clouds
12:51 PM 89.6 °F 98.2 °F 73.4 °F 59% 30.12 in 10.0 mi ESE 11.5 mph 21.9 mph N/A   Scattered Clouds
1:51 PM 91.0 °F 99.3 °F 73.0 °F 55% 30.12 in 10.0 mi East 17.3 mph 24.2 mph N/A   Scattered Clouds
2:51 PM 93.0 °F 100.7 °F 72.0 °F 50% 30.11 in 10.0 mi East 17.3 mph - N/A   Scattered Clouds
3:51 PM 93.0 °F 100.7 °F 72.0 °F 50% 30.09 in 10.0 mi East 16.1 mph 21.9 mph N/A   Scattered Clouds
4:51 PM 91.4 °F 98.4 °F 71.6 °F 52% 30.08 in 10.0 mi ESE 16.1 mph - N/A   Scattered Clouds
5:51 PM 91.0 °F 98.2 °F 72.0 °F 53% 30.06 in 10.0 mi ESE 15.0 mph - N/A   Partly Cloudy
6:51 PM 90.0 °F 96.4 °F 71.1 °F 54% 30.04 in 10.0 mi SE 15.0 mph - N/A   Partly Cloudy
7:51 PM 87.1 °F 92.8 °F 71.1 °F 59% 30.03 in 10.0 mi SE 12.7 mph - N/A   Partly Cloudy
8:51 PM 82.9 °F 88.8 °F 73.0 °F 72% 30.04 in 10.0 mi SE 12.7 mph - N/A   Partly Cloudy
9:51 PM 82.0 °F 88.6 °F 75.0 °F 79% 30.05 in 10.0 mi SE 10.4 mph - N/A   Partly Cloudy
10:51 PM 81.0 °F 86.7 °F 75.0 °F 82% 30.07 in 10.0 mi SSE 6.9 mph - N/A   Partly Cloudy
11:51 PM 79.0 °F - 73.9 °F 84% 30.06 in 10.0 mi SE 6.9 mph - N/A   Partly Cloudy